Regional Weather Roundup
Issued by NWS San Angelo, TX

Home | Current Version | Previous Version | Graphics & Text | Print | Product List | Glossary Off
Versions: 1 2 3 4 5 6 7 8 9 10 11 12 13 14 15 16 17 18 19 20 21 22 23 24 25 26 27 28 29 30 31 32 33 34 35 36 37 38 39 40 41 42 43 44 45 46 47 48 49 50

000
ASUS44 KSJT 282302
RWRSJT
WEST CENTRAL TEXAS REGIONAL WEATHER ROUNDUP
NATIONAL WEATHER SERVICE SAN ANGELO TX
600 PM CDT FRI APR 28 2017

NOTE: "FAIR" INDICATES FEW OR NO CLOUDS BELOW 12,000 FEET WITH NO
SIGNIFICANT WEATHER AND/OR OBSTRUCTIONS TO VISIBILITY.

TXZ049-054-064>066-071>073-076>078-098-099-113-114-127-128-139-140-
154-155-168>170-290000
...LOCATIONS ACROSS WEST CENTRAL TEXAS...

CITY           SKY/WX    TMP DP  RH WIND       PRES   REMARKS
SAN ANGELO     CLOUDY    95  45  17 S6        29.51F
ABILENE        CLOUDY    84  62  47 SE3       29.55F
DYESS AFB      CLOUDY    87  53  31 SE7       29.53F
JUNCTION       CLOUDY    91  63  39 SE13      29.54S
SWEETWATER     CLOUDY    83  54  37 SE9       29.59S
BROWNWOOD      NOT AVBL
COLEMAN        CLOUDY    89  62  40 SE12      29.55S
SONORA         MOSUNNY   91  48  22 S7G14     29.59S
OZONA            N/A     90  46  22 S12       29.58S
BRADY          NOT AVBL
$$

TEXAS PANHANDLE/OKLAHOMA PANHANDLE

CITY           SKY/WX    TMP DP  RH WIND       PRES   REMARKS
AMARILLO       LGT RAIN  52  50  93 N23G31    29.69R
BORGER         LGT RAIN  58  47  66 N17G26    29.70R
CANADIAN       CLOUDY    70  46  42 E8        29.63F
DALHART        CLOUDY    50  43  77 N22       29.71F
DUMAS          CLOUDY    48  44  85 N22G31    29.73S
GUYMON         NOT AVBL
HEREFORD       DRIZZLE   56  47  71 NE29G43   29.64R
PAMPA          LGT RAIN  61  48  62 N17G24    29.67R
PERRYTON       CLOUDY    62  46  55 NW7       29.71R
$$

SOUTHERN PANHANDLE/SOUTH PLAINS/ROLLING PLAINS

CITY           SKY/WX    TMP DP  RH WIND       PRES   REMARKS
LUBBOCK        CLOUDY    83  35  18 S20       29.57F
SNYDER         CLOUDY   N/A N/A N/A SE6       29.57S
CHILDRESS      MOSUNNY   82  44  26 SE13      29.59S
SEMINOLE       CLOUDY    85  35  16 SW18G26   29.56F
$$

PERMIAN BASIN

CITY           SKY/WX    TMP DP  RH WIND       PRES   REMARKS
MIDLAND        CLOUDY    90  35  14 SW10      29.54F
ODESSA         MOSUNNY   90  34  13 W9        29.55F
WINK           CLOUDY    90  30  11 SW16G24   29.50F
$$

FAR WEST/SOUTHWEST MOUNTAINS/TRANS PECOS

CITY           SKY/WX    TMP DP  RH WIND       PRES   REMARKS
ALPINE         CLEAR     87  27  11 SW17G23   29.69F
DRYDEN           N/A     92  52  25 SE17      29.51F
EL PASO        CLOUDY    83  30  14 W30G39    29.56F
FORT STOCKTON  SUNNY     97  34  11 W15G26    29.52F
GUADALUPE PASS CLOUDY    80  30  16 SW39G60   29.61F
MARFA          CLOUDY    84  29  13 S15       29.68F
PECOS          PTCLDY    91  32  12 SW13      29.50F
$$

DALLAS/FORT WORTH METROPLEX

CITY           SKY/WX    TMP DP  RH WIND       PRES   REMARKS
DFW AIRPORT    CLOUDY    86  69  56 S17       29.54S
FTW MEACHAM    CLOUDY    86  69  56 S18       29.55S
DAL-EXECUTIVE  CLOUDY    84  71  65 SE10      29.56S
GRAND PRAIRIE  SUNNY     84  68  58 SE7       29.57F
ADDISON        MOSUNNY   84  68  58 SE17G23   29.57F
MESQUITE       CLEAR     82  72  69 SE6       29.57F
LANCASTER      PTCLDY    83  71  67 E8        29.57F
$$

NORTH CENTRAL TEXAS

CITY           SKY/WX    TMP DP  RH WIND       PRES   REMARKS
SHRMAN/DENISON NOT AVBL
GAINESVILLE    CLOUDY    80  68  67 S7        29.60R
BRIDGEPORT     MOCLDY    82  67  59 SE8       29.58R
DENTON         MOSUNNY   84  69  60 SE16      29.55S
WAXAHACHIE     CLOUDY    83  72  67 SE5       29.57F
GRANBURY       CLOUDY    87  68  53 SE17      29.55S
$$

WESTERN NORTH TEXAS

CITY           SKY/WX    TMP DP  RH WIND       PRES   REMARKS
WICHITA FALLS  CLOUDY    82  62  50 SE13      29.55F
VERNON         PTCLDY    85  47  26 SE13      29.57R
BRECKENRIDGE   PTCLDY    86  63  46 SE7       29.54S HAZE
COMANCHE       CLOUDY    86  66  50 SE12      29.56S
$$

CENTRAL AND SOUTH CENTRAL TEXAS

CITY           SKY/WX    TMP DP  RH WIND       PRES   REMARKS
AUSTIN/BERGSTM MOSUNNY   93  68  43 SE17      29.53S
WACO           CLOUDY    88  70  55 S15G22    29.54F
HILLSBORO      MOCLDY    85  70  59 SE9       29.56S
TEMPLE         MOSUNNY   89  71  55 S17       29.55S
KILLEEN-GRAY   CLOUDY    88  68  50 SE14      29.54S
FORT HOOD      CLOUDY    89  68  50 S13G22    29.52S
GEORGETOWN     MOSUNNY   91  68  46 S9G18     29.54F
LAGO VISTA     FAIR      90  66  45 SE9G18    29.57S
SAN MARCOS     SUNNY     91  70  49 SE15G22   29.54S
NEW BRAUNFELS  SUNNY     93  69  45 SE16      29.52S
RANDOLPH AFB   SUNNY     93  72  50 SE14      29.52S
SAN ANTONIO    MOSUNNY   92  66  42 SE13      29.53S
STINSON        SUNNY     96  66  37 SE9       29.49F
PLEASANTON     NOT AVBL
LA GRANGE      SUNNY     88  73  60 SE14G22   29.55S
GIDDINGS       CLEAR     88  67  50 S14G22    29.58R
$$

EAST TEXAS

CITY           SKY/WX    TMP DP  RH WIND       PRES   REMARKS
PARIS          CLOUDY    82  70  65 SE7       29.61S
CLARKSVILLE    NOT AVBL
TYLER          MOSUNNY   86  71  60 SE17G24   29.60R
LONGVIEW       MOSUNNY   88  74  63 S12       29.61S
PALESTINE      PTCLDY    88  74  62 SE10G18   29.60S
NACOGDOCHES    SUNNY     86  73  66 S9        29.63R
$$

TEXAS HILL COUNTRY AND EDWARDS PLATEAU

CITY           SKY/WX    TMP DP  RH WIND       PRES   REMARKS
LLANO          NOT AVBL
HORSESHOE BAY  NOT AVBL
KERRVILLE      SUNNY     85  72  64 S6        29.58S
FREDERICKSBRG  NOT AVBL
ROCKSPRINGS    CLEAR     86  64  48 SE9       29.60S
HONDO          SUNNY     92  70  48 SE7       29.52F
UVALDE         CLEAR     85  71  61 CALM      29.53F
DEL RIO        CLOUDY    87  67  51 E10       29.48F
$$

SOUTHEAST TEXAS

CITY           SKY/WX    TMP DP  RH WIND       PRES   REMARKS
COLLEGE STN    SUNNY     90  72  55 SE24G31   29.58R
CALDWELL       NOT AVBL
CROCKETT       MOCLDY    86  73  66 SE13G24   29.64S
BRENHAM        SUNNY     89  70  52 SE17G25   29.59S
HUNTSVILLE     SUNNY     88  72  58 S13G22    29.61S
CONROE         CLOUDY    84  73  69 SE18G28   29.64R
HOUSTON BUSH   PTSUNNY   85  73  67 SE24G32   29.63S
HOUSTON HOBBY  PTSUNNY   83  74  74 SE17G26   29.64S
PERLAND        CLOUDY    85  75  72 SE14G23   29.66S HAZE
WHARTON        NOT AVBL
$$

THE UPPER TEXAS COAST

CITY           SKY/WX    TMP DP  RH WIND       PRES   REMARKS
ORANGE         CLOUDY    80  76  86 SE13G18   29.74S FOG
PORT ARTHUR    CLOUDY    81  75  82 SE15G26   29.71S HAZE
GALVESTON      CLOUDY    82  77  84 SE16      29.68S HAZE
ANGLETON       CLOUDY    83  76  79 SE15G24   29.65S
BAY CITY       CLOUDY    83  75  77 SE10      29.63S
$$

TEXAS COASTAL BEND, RIO GRANDE PLAINS DEEP SOUTH TEXAS

CITY           SKY/WX    TMP DP  RH WIND       PRES   REMARKS
VICTORIA       SUNNY     87  71  58 S21G30    29.56F
BEEVILLE       FAIR      93  75  55 SE14G20   29.51F
ROCKPORT       SUNNY     84  74  71 SE17      29.56R
PORT ARANSAS   CLEAR     81  74  81 SE15      29.55S HAZE
PORT LAVACA    CLEAR     84  76  77 SE20      29.58S
CORPUS CHRISTI MOSUNNY   88  72  58 SE25      29.51S
KINGSVILLE NAS SUNNY     91  76  61 SE17G30   29.49R
COTULLA        MOSUNNY  101  61  26 S8        29.46F
LAREDO         SUNNY    101  63  28 SE6       29.46S
BROWNSVILLE    MOSUNNY   88  74  63 SE26G37   29.54S
PORT ISABEL    MOSUNNY   87  75  67 SE25G33   29.53R
HEBBRONVILLE   NOT AVBL
MCALLEN        SUNNY     95  71  45 SE23G31   29.48S
WESLACO        SUNNY     91  70  50 S23G37    29.49R
FALFURRIAS     CLEAR     97  64  33 SE20G29   29.47S
EDINBURG       CLEAR     95  64  35 SE22G31   29.49R
$$




USA.gov is the U.S. government's official web portal to all federal, state and local government web resources and services.